Location: Kerguer�zec
(48.4509°N, 4.7600°W)
Time: 07:41:35
(UTC+00:00)

STARLINK-1245 - Pass Details

Date: 09 April 2020
Orbit: 548 x 551 km, 53.0° (Epoch: 03 June)

Event Time Altitude Azimuth Distance (km) Brightness Sun altitude
Rises 19:55:55 0° 295° (WNW) 2,726 9.6 -9.3°
Reaches altitude 10° 19:58:11 10° 292° (WNW) 1,829 8.0 -9.7°
Maximum altitude 20:02:16 56° 214° (SSW) 655 4.0 -10.3°
Enters shadow 20:05:45 14° 137° (SE) 1,604 5.4 -10.8°
